,,,PA_Meas_PMT16A,,PR_Meas_QMR101_102,,RH_Meas_QMH101,,SR_Meas_QMS101,,TA_Meas_QMH101,,GenWind,,GenWind,
date,time,status,PA,status,PR,status,RH,status,SR,status,TA,status,DirAvg,status,SpdAvg,
2008-07-25, 07:16:04,VALID,1004.33,VALID,0,VALID,85.68,VALID,210.378,VALID,26.3538,VALID,193,VALID,0.425781,
2008-07-25, 07:17:04,VALID,1004.34,VALID,0,VALID,85.7562,VALID,215.205,VALID,26.3733,VALID,193,VALID,0.153906,
2008-07-25, 07:18:04,VALID,1004.32,VALID,0,VALID,85.3748,VALID,220.836,VALID,26.4317,VALID,193,VALID,0.350391,
2008-07-25, 07:19:04,VALID,1004.33,VALID,0,VALID,84.8789,VALID,223.35,VALID,26.4707,VALID,193,VALID,0.278516,
2008-07-25, 07:20:04,VALID,1004.35,VALID,0,VALID,84.6577,VALID,225.462,VALID,26.5486,VALID,193,VALID,0.0847656,
2008-07-25, 07:21:04,VALID,1004.33,VALID,0,VALID,84.7111,VALID,226.468,VALID,26.685,VALID,193,VALID,0,
2008-07-25, 07:22:04,VALID,1004.33,VALID,0,VALID,84.3602,VALID,230.893,VALID,26.8019,VALID,192,VALID,0.169141,
2008-07-25, 07:23:04,VALID,1004.34,VALID,0,VALID,84.1847,VALID,233.407,VALID,27.0183,VALID,192,VALID,0,
2008-07-25, 07:24:04,VALID,1004.29,VALID,0,VALID,82.8268,VALID,238.435,VALID,27.1916,VALID,192,VALID,0,
2008-07-25, 07:25:04,VALID,1004.33,VALID,0,VALID,81.896,VALID,243.061,VALID,27.408,VALID,192,VALID,0.162891,
2008-07-25, 07:26:04,VALID,1004.33,VALID,0,VALID,81.0492,VALID,247.083,VALID,27.5424,VALID,192,VALID,0.241016,
2008-07-25, 07:27:04,VALID,1004.41,VALID,0,VALID,80.2558,VALID,250.1,VALID,27.6788,VALID,192,VALID,0.147656,
2008-07-25, 07:28:04,VALID,1004.4,VALID,0,VALID,80.1566,VALID,254.324,VALID,27.8758,VALID,192,VALID,0.151953,
2008-07-25, 07:29:04,VALID,1004.41,VALID,0,VALID,79.5997,VALID,258.246,VALID,28.0317,VALID,192,VALID,0.310156,
2008-07-25, 07:30:04,VALID,1004.39,VALID,0,VALID,78.8063,VALID,262.168,VALID,28.0665,VALID,192,VALID,0.264844,
2008-07-25, 07:31:04,VALID,1004.4,VALID,0,VALID,78.8979,VALID,265.687,VALID,28.1076,VALID,192,VALID,0.127344,
2008-07-25, 07:32:04,VALID,1004.41,VALID,0,VALID,78.7072,VALID,269.911,VALID,28.166,VALID,219,VALID,0.270312,
2008-07-25, 07:33:04,VALID,1004.41,VALID,0,VALID,78.5088,VALID,274.738,VALID,28.2245,VALID,259,VALID,0.337891,
2008-07-25, 07:34:04,VALID,1004.4,VALID,0,VALID,77.9748,VALID,279.364,VALID,28.1855,VALID,45,VALID,0.698828,
2008-07-25, 07:35:04,VALID,1004.46,VALID,0,VALID,78.6538,VALID,283.789,VALID,28.1076,VALID,40,VALID,0.714063,
2008-07-25, 07:36:04,VALID,1004.46,VALID,0,VALID,79.3327,VALID,286.906,VALID,28.1097,VALID,23,VALID,0.500391,
2008-07-25, 07:37:04,VALID,1004.45,VALID,0,VALID,79.348,VALID,289.722,VALID,28.1855,VALID,1,VALID,0.589063,
2008-07-25, 07:38:04,VALID,1004.42,VALID,0,VALID,79.4853,VALID,293.04,VALID,28.244,VALID,360,VALID,0.660156,
2008-07-25, 07:39:04,VALID,1004.44,VALID,0,VALID,79.5463,VALID,296.862,VALID,28.3458,VALID,360,VALID,0.4,
2008-07-25, 07:40:04,VALID,1004.41,VALID,0,VALID,78.5088,VALID,299.979,VALID,28.3805,VALID,346,VALID,0.649219,
2008-07-25, 07:41:04,VALID,1004.42,VALID,0,VALID,77.99,VALID,302.594,VALID,28.4216,VALID,350,VALID,0.370703,
2008-07-25, 07:42:04,VALID,1004.43,VALID,0,VALID,78.3486,VALID,304.706,VALID,28.4801,VALID,303,VALID,0.262109,
2008-07-25, 07:43:04,VALID,1004.46,VALID,0,VALID,78.4249,VALID,308.427,VALID,28.5191,VALID,295,VALID,0.148047,
2008-07-25, 07:44:04,VALID,1004.44,VALID,0,VALID,78.3028,VALID,313.052,VALID,28.5776,VALID,311,VALID,0.277734,
2008-07-25, 07:45:04,VALID,1004.47,VALID,0,VALID,77.4865,VALID,317.075,VALID,28.6144,VALID,351,VALID,0.865625,
2008-07-25, 07:46:04,VALID,1004.5,VALID,0,VALID,77.2882,VALID,321.902,VALID,28.5342,VALID,348,VALID,0.581641,
2008-07-25, 07:47:04,VALID,1004.48,VALID,0,VALID,77.4102,VALID,325.723,VALID,28.5364,VALID,349,VALID,0.318359,
2008-07-25, 07:48:04,VALID,1004.49,VALID,0,VALID,77.7993,VALID,328.237,VALID,28.6144,VALID,286,VALID,0.138281,
2008-07-25, 07:49:04,VALID,1004.47,VALID,0,VALID,76.9754,VALID,328.74,VALID,28.6512,VALID,286,VALID,0.00429688,
2008-07-25, 07:50:04,VALID,1004.51,VALID,0,VALID,75.1826,VALID,332.562,VALID,28.8093,VALID,286,VALID,0.319531,
2008-07-25, 07:51:04,VALID,1004.5,VALID,0,VALID,74.8698,VALID,338.093,VALID,28.9068,VALID,306,VALID,0.283594,
2008-07-25, 07:52:04,VALID,1004.49,VALID,0,VALID,74.374,VALID,345.132,VALID,29.0238,VALID,306,VALID,0,
2008-07-25, 07:53:04,VALID,1004.52,VALID,0,VALID,74.908,VALID,349.858,VALID,29.143,VALID,297,VALID,0.270312,
2008-07-25, 07:54:04,VALID,1004.48,VALID,0,VALID,74.7859,VALID,353.077,VALID,29.1408,VALID,292,VALID,0.265234,
2008-07-25, 07:55:04,VALID,1004.47,VALID,0,VALID,73.3441,VALID,355.892,VALID,29.1603,VALID,292,VALID,0.065625,
2008-07-25, 07:56:04,VALID,1004.44,VALID,0,VALID,71.4979,VALID,356.797,VALID,29.1603,VALID,121,VALID,0.757422,
2008-07-25, 07:57:04,VALID,1004.44,VALID,0,VALID,71.3911,VALID,358.507,VALID,28.9263,VALID,129,VALID,1.15703,
2008-07-25, 07:58:04,VALID,1004.45,VALID,0,VALID,73.0999,VALID,363.837,VALID,28.6729,VALID,97,VALID,0.665234,
2008-07-25, 07:59:04,VALID,1004.49,VALID,0,VALID,73.8094,VALID,367.759,VALID,28.6144,VALID,73,VALID,0.990234,
2008-07-25, 08:00:04,VALID,1004.47,VALID,0,VALID,74.8241,VALID,372.083,VALID,28.6729,VALID,47,VALID,0.461328,
2008-07-25, 08:01:04,VALID,1004.53,VALID,0,VALID,75.6404,VALID,374.798,VALID,28.7509,VALID,29,VALID,0.736719,
2008-07-25, 08:02:04,VALID,1004.51,VALID,0,VALID,72.6117,VALID,375.904,VALID,28.8093,VALID,27,VALID,1.29023,
2008-07-25, 08:03:04,VALID,1004.49,VALID,0,VALID,72.1082,VALID,378.418,VALID,28.7509,VALID,30,VALID,0.602734,
2008-07-25, 08:04:04,VALID,1004.47,VALID,0,VALID,72.6193,VALID,381.737,VALID,28.8093,VALID,78,VALID,0.514063,
2008-07-25, 08:05:04,VALID,1004.49,VALID,0,VALID,73.016,VALID,385.458,VALID,28.8678,VALID,79,VALID,0.446875,
2008-07-25, 08:06:04,VALID,1004.5,VALID,0,VALID,73.1228,VALID,389.279,VALID,28.8873,VALID,83,VALID,0.539063,
2008-07-25, 08:07:04,VALID,1004.5,VALID,0,VALID,71.5589,VALID,394.508,VALID,28.9241,VALID,68,VALID,0.763672,
2008-07-25, 08:08:04,VALID,1004.53,VALID,0,VALID,71.5589,VALID,400.542,VALID,28.948,VALID,100,VALID,0.582422,
2008-07-25, 08:09:04,VALID,1004.5,VALID,0,VALID,73.1076,VALID,404.263,VALID,28.8873,VALID,103,VALID,0.431641,
2008-07-25, 08:10:04,VALID,1004.54,VALID,0,VALID,72.749,VALID,409.693,VALID,29.0043,VALID,100,VALID,0.901172,
2008-07-25, 08:11:04,VALID,1004.52,VALID,0,VALID,72.4286,VALID,408.99,VALID,28.9653,VALID,95,VALID,0.826953,
2008-07-25, 08:12:04,VALID,1004.52,VALID,0,VALID,72.07,VALID,412.71,VALID,28.948,VALID,103,VALID,1.68008,
2008-07-25, 08:13:04,VALID,1004.51,VALID,0,VALID,72.7795,VALID,418.04,VALID,28.8678,VALID,131,VALID,1.55156,
2008-07-25, 08:14:04,VALID,1004.49,VALID,0,VALID,73.2067,VALID,421.962,VALID,28.7314,VALID,68,VALID,1.14492,
2008-07-25, 08:15:04,VALID,1004.45,VALID,0,VALID,74.7478,VALID,423.269,VALID,28.7509,VALID,31,VALID,0.901563,
2008-07-25, 08:16:04,VALID,1004.46,VALID,0,VALID,73.6721,VALID,426.286,VALID,28.831,VALID,27,VALID,0.790234,
2008-07-25, 08:17:04,VALID,1004.45,VALID,0,VALID,73.8323,VALID,430.409,VALID,28.9458,VALID,359,VALID,0.698438,
2008-07-25, 08:18:04,VALID,1004.48,VALID,0,VALID,72.749,VALID,436.141,VALID,29.1625,VALID,21,VALID,0.285937,
2008-07-25, 08:19:04,VALID,1004.5,VALID,0,VALID,71.0706,VALID,442.879,VALID,29.3185,VALID,342,VALID,0.389453,
2008-07-25, 08:20:04,VALID,1004.47,VALID,0,VALID,71.2614,VALID,445.293,VALID,29.416,VALID,343,VALID,0.01875,
2008-07-25, 08:21:04,VALID,1004.46,VALID,0,VALID,70.5748,VALID,446.499,VALID,29.5525,VALID,31,VALID,0.712109,
2008-07-25, 08:22:04,VALID,1004.43,VALID,0,VALID,69.9416,VALID,447.505,VALID,29.6523,VALID,12,VALID,0.825391,
2008-07-25, 08:23:04,VALID,1004.41,VALID,0,VALID,68.2251,VALID,450.019,VALID,29.6695,VALID,22,VALID,1.15313,
2008-07-25, 08:24:04,VALID,1004.41,VALID,0,VALID,69.2855,VALID,455.751,VALID,29.572,VALID,28,VALID,0.401172,
2008-07-25, 08:25:04,VALID,1004.4,VALID,0,VALID,69.4991,VALID,460.176,VALID,29.6913,VALID,76,VALID,0.272656,
2008-07-25, 08:26:04,VALID,1004.41,VALID,0,VALID,70.0255,VALID,463.997,VALID,29.845,VALID,39,VALID,0.298828,
2008-07-25, 08:27:04,VALID,1004.41,VALID,0,VALID,68.3395,VALID,465.808,VALID,30.0401,VALID,341,VALID,0.742969,
2008-07-25, 08:28:04,VALID,1004.38,VALID,0,VALID,68.37,VALID,468.02,VALID,30.1961,VALID,352,VALID,1.25703,
2008-07-25, 08:29:04,VALID,1004.4,VALID,0,VALID,68.2785,VALID,473.752,VALID,30.2523,VALID,355,VALID,0.801172,
2008-07-25, 08:30:04,VALID,1004.41,VALID,0,VALID,67.1494,VALID,480.49,VALID,30.2523,VALID,334,VALID,0.610937,
2008-07-25, 08:31:04,VALID,1004.4,VALID,0,VALID,69.5678,VALID,484.512,VALID,30.2523,VALID,170,VALID,0.444531,
2008-07-25, 08:32:04,VALID,1004.4,VALID,0,VALID,68.2556,VALID,489.339,VALID,30.1158,VALID,173,VALID,0.905078,
2008-07-25, 08:33:04,VALID,1004.45,VALID,0,VALID,67.5843,VALID,493.161,VALID,29.9988,VALID,122,VALID,0.385156,
2008-07-25, 08:34:04,VALID,1004.43,VALID,0,VALID,68.0801,VALID,495.474,VALID,29.9598,VALID,126,VALID,0.123438,
2008-07-25, 08:35:04,VALID,1004.45,VALID,0,VALID,68.4311,VALID,496.278,VALID,30.0573,VALID,126,VALID,0.0304688,
2008-07-25, 08:36:04,VALID,1004.46,VALID,0,VALID,68.9117,VALID,498.692,VALID,30.1743,VALID,83,VALID,0.733594,
2008-07-25, 08:37:04,VALID,1004.49,VALID,0,VALID,69.1482,VALID,503.116,VALID,29.9403,VALID,76,VALID,0.717578,
2008-07-25, 08:38:04,VALID,1004.48,VALID,0,VALID,67.3554,VALID,497.887,VALID,29.7453,VALID,83,VALID,1.66758,
2008-07-25, 08:39:04,VALID,1004.48,VALID,0,VALID,68.6065,VALID,510.055,VALID,29.5525,VALID,75,VALID,0.923047,
2008-07-25, 08:40:04,VALID,1004.45,VALID,0,VALID,69.2092,VALID,508.446,VALID,29.4723,VALID,74,VALID,0.945313,
2008-07-25, 08:41:04,VALID,1004.44,VALID,0,VALID,68.9498,VALID,514.882,VALID,29.4138,VALID,102,VALID,1.35352,
2008-07-25, 08:42:04,VALID,1004.43,VALID,0,VALID,70.3688,VALID,523.832,VALID,29.4138,VALID,47,VALID,0.657031,
2008-07-25, 08:43:04,VALID,1004.44,VALID,0,VALID,70.3764,VALID,530.671,VALID,29.5308,VALID,6,VALID,1.19961,
2008-07-25, 08:44:04,VALID,1004.43,VALID,0,VALID,70.6892,VALID,535.397,VALID,29.6673,VALID,64,VALID,0.655859,
2008-07-25, 08:45:04,VALID,1004.45,VALID,0,VALID,69.5372,VALID,539.822,VALID,29.7865,VALID,32,VALID,1.00469,
2008-07-25, 08:46:04,VALID,1004.43,VALID,0,VALID,67.3325,VALID,540.325,VALID,29.728,VALID,26,VALID,1.15508,
2008-07-25, 08:47:04,VALID,1004.41,VALID,0,VALID,67.7979,VALID,543.241,VALID,29.767,VALID,32,VALID,1.09922,
2008-07-25, 08:48:04,VALID,1004.41,VALID,0,VALID,67.5766,VALID,546.761,VALID,29.8233,VALID,350,VALID,1.15273,
2008-07-25, 08:49:04,VALID,1004.38,VALID,0,VALID,67.2028,VALID,552.794,VALID,29.9231,VALID,292,VALID,0.704297,
2008-07-25, 08:50:04,VALID,1004.4,VALID,0,VALID,67.7979,VALID,559.633,VALID,30.0206,VALID,271,VALID,0.114844,
2008-07-25, 08:51:04,VALID,1004.45,VALID,0,VALID,68.8278,VALID,558.627,VALID,30.1376,VALID,121,VALID,0.764844,
2008-07-25, 08:52:04,VALID,1004.43,VALID,0,VALID,65.4787,VALID,566.773,VALID,29.9036,VALID,114,VALID,2.11797,
2008-07-25, 08:53:04,VALID,1004.4,VALID,0,VALID,66.1653,VALID,571.097,VALID,29.7475,VALID,81,VALID,0.753125,
2008-07-25, 08:54:04,VALID,1004.36,VALID,0,VALID,66.9587,VALID,579.745,VALID,29.845,VALID,24,VALID,0.866016,
2008-07-25, 08:55:04,VALID,1004.36,VALID,0,VALID,68.8735,VALID,586.584,VALID,29.8473,VALID,114,VALID,1.27031,
2008-07-25, 08:56:04,VALID,1004.32,VALID,0,VALID,68.782,VALID,573.51,VALID,29.7303,VALID,131,VALID,1.9543,
2008-07-25, 08:57:04,VALID,1004.3,VALID,0,VALID,69.377,VALID,241.049,VALID,29.689,VALID,129,VALID,1.84922,
2008-07-25, 08:58:04,VALID,1004.33,VALID,0,VALID,70.0865,VALID,179.404,VALID,29.7108,VALID,31,VALID,0.766406,
2008-07-25, 08:59:04,VALID,1004.33,VALID,0,VALID,68.4158,VALID,200.824,VALID,29.728,VALID,312,VALID,0.923437,
2008-07-25, 09:00:04,VALID,1004.27,VALID,0,VALID,69.2397,VALID,640.284,VALID,29.8038,VALID,21,VALID,0.258984,
2008-07-25, 09:01:04,VALID,1004.29,VALID,0,VALID,69.11,VALID,633.647,VALID,29.9426,VALID,40,VALID,0.505859,
2008-07-25, 09:02:04,VALID,1004.28,VALID,0,VALID,68.4387,VALID,649.536,VALID,30.0986,VALID,167,VALID,0.553125,
2008-07-25, 09:03:04,VALID,1004.3,VALID,0,VALID,66.2721,VALID,173.974,VALID,30.1181,VALID,34,VALID,1.73086,
2008-07-25, 09:04:04,VALID,1004.24,VALID,0,VALID,66.6001,VALID,522.223,VALID,29.884,VALID,3,VALID,0.721094,
2008-07-25, 09:05:04,VALID,1004.23,VALID,0,VALID,68.309,VALID,656.073,VALID,29.8255,VALID,20,VALID,0.319531,
2008-07-25, 09:06:04,VALID,1004.2,VALID,0,VALID,66.3102,VALID,659.693,VALID,29.9621,VALID,351,VALID,2.01875,
2008-07-25, 09:07:04,VALID,1004.19,VALID,0,VALID,65.5931,VALID,661.402,VALID,30.0011,VALID,322,VALID,1.07187,
2008-07-25, 09:08:04,VALID,1004.2,VALID,0,VALID,65.4558,VALID,670.755,VALID,30.0011,VALID,2,VALID,1.14141,
2008-07-25, 09:09:04,VALID,1004.19,VALID,0,VALID,66.0356,VALID,677.392,VALID,30.1181,VALID,5,VALID,0.8125,
2008-07-25, 09:10:04,VALID,1004.2,VALID,0,VALID,64.4946,VALID,611.724,VALID,30.2741,VALID,349,VALID,1.65313,
2008-07-25, 09:11:04,VALID,1004.22,VALID,0,VALID,65.9593,VALID,698.309,VALID,30.3522,VALID,7,VALID,1.77422,
2008-07-25, 09:12:04,VALID,1004.2,VALID,0,VALID,64.5098,VALID,265.486,VALID,30.4107,VALID,351,VALID,1.6543,
2008-07-25, 09:13:04,VALID,1004.21,VALID,0,VALID,65.41,VALID,659.391,VALID,30.4302,VALID,38,VALID,1.55977,
2008-07-25, 09:14:04,VALID,1004.19,VALID,0,VALID,64.9981,VALID,463.796,VALID,30.4107,VALID,18,VALID,0.286719,
2008-07-25, 09:15:04,VALID,1004.17,VALID,0,VALID,63.0222,VALID,397.224,VALID,30.5449,VALID,13,VALID,0.471094,
2008-07-25, 09:16:04,VALID,1004.15,VALID,0,VALID,63.8995,VALID,753.116,VALID,30.6034,VALID,23,VALID,0.598047,
2008-07-25, 09:17:04,VALID,1004.16,VALID,0,VALID,63.335,VALID,497.485,VALID,30.3694,VALID,53,VALID,1.0457,
2008-07-25, 09:18:04,VALID,1004.16,VALID,0,VALID,65.5168,VALID,274.336,VALID,30.3522,VALID,337,VALID,0.850781,
2008-07-25, 09:19:04,VALID,1004.14,VALID,0,VALID,64.7921,VALID,280.068,VALID,30.2936,VALID,335,VALID,1.11133,
2008-07-25, 09:20:04,VALID,1004.12,VALID,0,VALID,65.9135,VALID,751.909,VALID,30.1548,VALID,312,VALID,0.823828,
2008-07-25, 09:21:04,VALID,1004.12,VALID,0,VALID,63.7012,VALID,766.994,VALID,30.0768,VALID,3,VALID,1.48047,
2008-07-25, 09:22:04,VALID,1004.1,VALID,0,VALID,64.342,VALID,769.005,VALID,30.1743,VALID,345,VALID,0.861719,
2008-07-25, 09:23:04,VALID,1004.05,VALID,0,VALID,64.4793,VALID,759.15,VALID,30.3109,VALID,148,VALID,0.665625,
2008-07-25, 09:24:04,VALID,1004.04,VALID,0,VALID,64.2657,VALID,737.73,VALID,30.3109,VALID,80,VALID,0.954687,
2008-07-25, 09:25:04,VALID,1004.04,VALID,0,VALID,63.0146,VALID,754.021,VALID,30.3499,VALID,90,VALID,1.11445,
2008-07-25, 09:26:04,VALID,1004.02,VALID,0,VALID,63.5867,VALID,751.004,VALID,30.5082,VALID,143,VALID,0.917188,
2008-07-25, 09:27:04,VALID,1004.01,VALID,0,VALID,65.0591,VALID,757.943,VALID,30.4864,VALID,103,VALID,0.910937,
2008-07-25, 09:28:04,VALID,1004.03,VALID,0,VALID,63.5715,VALID,753.216,VALID,30.3694,VALID,121,VALID,2.00625,
2008-07-25, 09:29:04,VALID,1004.05,VALID,0,VALID,64.9752,VALID,767.396,VALID,30.3694,VALID,91,VALID,1.12148,
2008-07-25, 09:30:04,VALID,1004.05,VALID,0,VALID,62.5568,VALID,783.687,VALID,30.4107,VALID,138,VALID,1.06875,
2008-07-25, 09:31:04,VALID,1004.02,VALID,0,VALID,63.0756,VALID,782.078,VALID,30.5059,VALID,190,VALID,0.700391,
2008-07-25, 09:32:04,VALID,1003.98,VALID,0,VALID,64.403,VALID,809.934,VALID,30.7228,VALID,228,VALID,0.604297,
2008-07-25, 09:33:04,VALID,1004,VALID,0,VALID,63.6172,VALID,799.576,VALID,31.0154,VALID,306,VALID,0.708984,
2008-07-25, 09:34:04,VALID,1004,VALID,0,VALID,62.4195,VALID,835.276,VALID,31.3252,VALID,350,VALID,0.421094,
2008-07-25, 09:35:04,VALID,1004,VALID,0,VALID,62.2517,VALID,845.634,VALID,31.6398,VALID,331,VALID,0.296875,
2008-07-25, 09:36:04,VALID,1003.99,VALID,0,VALID,59.551,VALID,628.116,VALID,31.813,VALID,1,VALID,1.30117,
2008-07-25, 09:37:04,VALID,1003.96,VALID,0,VALID,59.4137,VALID,507.139,VALID,31.8545,VALID,289,VALID,1.22656,
2008-07-25, 09:38:04,VALID,1003.94,VALID,0,VALID,61.2218,VALID,751.909,VALID,31.9106,VALID,70,VALID,0.591016,
2008-07-25, 09:39:04,VALID,1003.94,VALID,0,VALID,59.5816,VALID,889.479,VALID,31.9521,VALID,266,VALID,0.533203,
2008-07-25, 09:40:04,VALID,1003.9,VALID,0,VALID,59.3374,VALID,887.367,VALID,31.696,VALID,55,VALID,0.880859,
2008-07-25, 09:41:04,VALID,1003.91,VALID,0,VALID,59.8943,VALID,353.479,VALID,31.5227,VALID,43,VALID,0.358984,
2008-07-25, 09:42:04,VALID,1003.92,VALID,0,VALID,58.7424,VALID,890.988,VALID,31.4618,VALID,345,VALID,0.679297,
2008-07-25, 09:43:04,VALID,1003.88,VALID,0,VALID,59.8715,VALID,880.227,VALID,31.5227,VALID,341,VALID,0.152734,
2008-07-25, 09:44:04,VALID,1003.89,VALID,0,VALID,61.6032,VALID,879.624,VALID,31.7374,VALID,265,VALID,0.441016,
2008-07-25, 09:45:04,VALID,1003.91,VALID,0,VALID,59.0246,VALID,861.623,VALID,31.913,VALID,347,VALID,0.549219,
2008-07-25, 09:46:04,VALID,1003.93,VALID,0,VALID,57.7506,VALID,832.661,VALID,32.0691,VALID,348,VALID,0.0230469,
2008-07-25, 09:47:04,VALID,1003.94,VALID,0,VALID,59.1391,VALID,855.59,VALID,32.3229,VALID,348,VALID,0.448438,
2008-07-25, 09:48:04,VALID,1003.93,VALID,0,VALID,56.0646,VALID,853.679,VALID,32.4985,VALID,312,VALID,0.514063,
2008-07-25, 09:49:04,VALID,1003.97,VALID,0,VALID,58.2236,VALID,885.055,VALID,32.44,VALID,36,VALID,0.653125,
2008-07-25, 09:50:04,VALID,1003.94,VALID,0,VALID,59.2154,VALID,875.903,VALID,32.1862,VALID,6,VALID,1.38203,
2008-07-25, 09:51:04,VALID,1003.92,VALID,0,VALID,59.8181,VALID,852.774,VALID,32.1472,VALID,264,VALID,2.02656,
2008-07-25, 09:52:04,VALID,1003.88,VALID,0,VALID,59.4061,VALID,848.148,VALID,32.0496,VALID,276,VALID,2.60664,
2008-07-25, 09:53:04,VALID,1003.84,VALID,0,VALID,59.6273,VALID,248.592,VALID,31.5813,VALID,277,VALID,2.91445,
2008-07-25, 09:54:04,VALID,1003.95,VALID,0,VALID,61.5727,VALID,223.35,VALID,31.1715,VALID,206,VALID,1.83516,
2008-07-25, 09:55:04,VALID,1003.96,VALID,0,VALID,62.5034,VALID,286.806,VALID,30.7446,VALID,134,VALID,1.68984,
2008-07-25, 09:56:04,VALID,1003.95,VALID,0,VALID,63.6096,VALID,305.611,VALID,30.3327,VALID,164,VALID,1.65313,
2008-07-25, 09:57:04,VALID,1003.97,VALID,0,VALID,65.082,VALID,348.35,VALID,30.1204,VALID,139,VALID,1.54609,
2008-07-25, 09:58:04,VALID,1003.95,VALID,0,VALID,69.9492,VALID,228.378,VALID,29.9036,VALID,154,VALID,1.40391,
2008-07-25, 09:59:04,VALID,1003.96,VALID,0,VALID,71.2003,VALID,206.154,VALID,29.6718,VALID,140,VALID,1.87344,
2008-07-25, 10:00:04,VALID,1003.97,VALID,0,VALID,72.2379,VALID,210.78,VALID,29.3575,VALID,208,VALID,2.36484,
2008-07-25, 10:01:04,VALID,1003.98,VALID,0,VALID,74.1527,VALID,228.68,VALID,29.182,VALID,198,VALID,0.935156,
2008-07-25, 10:02:04,VALID,1003.96,VALID,0,VALID,74.496,VALID,245.575,VALID,29.1235,VALID,194,VALID,0.762109,
2008-07-25, 10:03:04,VALID,1004,VALID,0,VALID,73.9773,VALID,269.509,VALID,29.0455,VALID,164,VALID,1.4957,
2008-07-25, 10:04:04,VALID,1004,VALID,0,VALID,74.4121,VALID,301.588,VALID,28.8895,VALID,176,VALID,1.7957,
2008-07-25, 10:05:04,VALID,1003.98,VALID,0,VALID,75.6022,VALID,333.768,VALID,28.753,VALID,211,VALID,2.33359,
2008-07-25, 10:06:04,VALID,1004.01,VALID,0,VALID,76.8915,VALID,354.786,VALID,28.6772,VALID,184,VALID,1.55625,
2008-07-25, 10:07:04,VALID,1003.98,VALID,0,VALID,77.0746,VALID,346.037,VALID,28.5581,VALID,179,VALID,1.46016,
2008-07-25, 10:08:04,VALID,1003.97,VALID,0,VALID,77.6544,VALID,327.433,VALID,28.4996,VALID,136,VALID,2.31289,
2008-07-25, 10:09:04,VALID,1003.98,VALID,0,VALID,76.8152,VALID,287.912,VALID,28.4996,VALID,204,VALID,1.45859,
2008-07-25, 10:10:04,VALID,1003.95,VALID,0,VALID,76.6779,VALID,261.966,VALID,28.4389,VALID,177,VALID,1.97187,
2008-07-25, 10:11:04,VALID,1003.96,VALID,0,VALID,78.669,VALID,256.335,VALID,28.4021,VALID,174,VALID,2.01016,
2008-07-25, 10:12:04,VALID,1003.95,VALID,0,VALID,78.0968,VALID,292.336,VALID,28.3436,VALID,168,VALID,1.12383,
2008-07-25, 10:13:04,VALID,1003.95,VALID,0,VALID,78.4936,VALID,358.205,VALID,28.322,VALID,161,VALID,1.35859,
2008-07-25, 10:14:04,VALID,1003.91,VALID,0,VALID,78.3791,VALID,782.078,VALID,28.4389,VALID,165,VALID,1.03437,
2008-07-25, 10:15:04,VALID,1003.91,VALID,0,VALID,79.882,VALID,712.69,VALID,28.6534,VALID,163,VALID,1.10391,
2008-07-25, 10:16:04,VALID,1003.9,VALID,0,VALID,76.6245,VALID,1010.66,VALID,28.9653,VALID,217,VALID,1.77031,
2008-07-25, 10:17:04,VALID,1003.92,VALID,0,VALID,75.1597,VALID,961.181,VALID,29.1018,VALID,188,VALID,1.31875,
2008-07-25, 10:18:04,VALID,1003.9,VALID,0,VALID,73.8933,VALID,566.572,VALID,29.2383,VALID,198,VALID,0.938281,
2008-07-25, 10:19:04,VALID,1003.88,VALID,0,VALID,73.077,VALID,360.015,VALID,29.26,VALID,228,VALID,0.864453,
2008-07-25, 10:20:04,VALID,1003.94,VALID,0,VALID,73.5806,VALID,689.258,VALID,29.26,VALID,206,VALID,1.61797,
2008-07-25, 10:21:04,VALID,1003.97,VALID,0,VALID,71.9175,VALID,1024.54,VALID,29.3012,VALID,208,VALID,1.00352,
2008-07-25, 10:22:04,VALID,1004.03,VALID,0,VALID,74.1146,VALID,1039.72,VALID,29.338,VALID,189,VALID,1.73906,
2008-07-25, 10:23:04,VALID,1004.01,VALID,0,VALID,73.7865,VALID,1017.29,VALID,29.4333,VALID,215,VALID,1.71875,
2008-07-25, 10:24:04,VALID,1003.98,VALID,0,VALID,72.009,VALID,371.781,VALID,29.533,VALID,164,VALID,2.11719,
2008-07-25, 10:25:04,VALID,1003.99,VALID,0,VALID,72.8253,VALID,520.011,VALID,29.494,VALID,200,VALID,1.34531,
2008-07-25, 10:26:04,VALID,1003.97,VALID,0,VALID,71.0096,VALID,327.534,VALID,29.4723,VALID,191,VALID,1.72539,
2008-07-25, 10:27:04,VALID,1004.01,VALID,0,VALID,73.1991,VALID,302.493,VALID,29.416,VALID,207,VALID,1.61484,
2008-07-25, 10:28:04,VALID,1003.99,VALID,0,VALID,74.5265,VALID,286.202,VALID,29.338,VALID,153,VALID,1.86758,
2008-07-25, 10:29:04,VALID,1003.99,VALID,0,VALID,75.1292,VALID,290.828,VALID,29.3185,VALID,162,VALID,1.81211,
2008-07-25, 10:30:04,VALID,1004,VALID,0,VALID,73.817,VALID,286.001,VALID,29.143,VALID,162,VALID,2.43516,
2008-07-25, 10:31:04,VALID,1004.02,VALID,0,VALID,74.5265,VALID,274.939,VALID,28.9285,VALID,171,VALID,2.11016,
2008-07-25, 10:32:04,VALID,1004,VALID,0,VALID,74.8393,VALID,262.168,VALID,28.8115,VALID,190,VALID,1.39102,
2008-07-25, 10:33:04,VALID,1004,VALID,0,VALID,75.3504,VALID,332.863,VALID,28.7704,VALID,182,VALID,0.775391,
2008-07-25, 10:34:04,VALID,1003.97,VALID,0,VALID,75.8845,VALID,314.561,VALID,28.7725,VALID,175,VALID,2.51445,
2008-07-25, 10:35:04,VALID,1003.98,VALID,0,VALID,77.0517,VALID,272.626,VALID,28.792,VALID,170,VALID,1.57734,
2008-07-25, 10:36:04,VALID,1003.97,VALID,0,VALID,76.1133,VALID,273.933,VALID,28.6534,VALID,184,VALID,3.33359,
2008-07-25, 10:37:04,VALID,1004,VALID,0,VALID,76.922,VALID,320.997,VALID,28.5559,VALID,172,VALID,2.05781,
2008-07-25, 10:38:04,VALID,1004,VALID,0,VALID,78.4859,VALID,782.883,VALID,28.5386,VALID,159,VALID,1.49492,
2008-07-25, 10:39:04,VALID,1003.97,VALID,0,VALID,78.6004,VALID,1008.75,VALID,28.6945,VALID,163,VALID,1.8457,
2008-07-25, 10:40:04,VALID,1004,VALID,0,VALID,76.3956,VALID,822.605,VALID,28.9675,VALID,221,VALID,1,
2008-07-25, 10:41:04,VALID,1004.01,VALID,0,VALID,75.0529,VALID,390.586,VALID,29.1213,VALID,179,VALID,1.88711,
2008-07-25, 10:42:04,VALID,1004,VALID,0,VALID,75.1063,VALID,436.745,VALID,29.1213,VALID,169,VALID,1.78945,
2008-07-25, 10:43:04,VALID,1004,VALID,0,VALID,75.8616,VALID,664.52,VALID,29.1235,VALID,200,VALID,1.13828,
2008-07-25, 10:44:04,VALID,1003.99,VALID,0,VALID,74.7096,VALID,340.406,VALID,29.1798,VALID,199,VALID,2.5168,
2008-07-25, 10:45:04,VALID,1003.96,VALID,0,VALID,74.7859,VALID,317.075,VALID,29.0455,VALID,172,VALID,2.28047,
2008-07-25, 10:46:04,VALID,1003.96,VALID,0,VALID,77.9214,VALID,284.09,VALID,28.9675,VALID,164,VALID,2.33789,
2008-07-25, 10:47:04,VALID,1003.92,VALID,0,VALID,76.0142,VALID,380.932,VALID,29.0065,VALID,181,VALID,2.0043,
2008-07-25, 10:48:04,VALID,1003.96,VALID,0,VALID,76.388,VALID,933.124,VALID,28.9263,VALID,193,VALID,1.91797,
2008-07-25, 10:49:04,VALID,1003.93,VALID,0,VALID,74.7401,VALID,279.364,VALID,29.0043,VALID,209,VALID,1.36094,
2008-07-25, 10:50:04,VALID,1003.9,VALID,0,VALID,77.4179,VALID,196.399,VALID,28.987,VALID,164,VALID,1.36563,